View from above orbital plane
|
View from above satellite
|
Ground track
|
The orbit data is extracted from the following two-line orbital elements,
1 13552U 82092A 21015.72516709 .00000934 00000-0 32366-4 0 9993
2 13552 82.5663 66.5565 0019387 103.0318 257.3087 15.28309641 96797
Epoch (UTC): | 15 January 2021 17:24:14 |
Eccentricity: | 0.0019387 |
inclination: | 82.5663° |
perigee height: | 467 km |
apogee height: | 494 km |
right ascension of ascending node: | 66.5565° |
argument of perigee: | 103.0318° |
revolutions per day: | 15.28309641 |
mean anomaly at epoch: | 257.3087° |
orbit number at epoch: | 9679 |
The dashed part of the orbit path shows where the satellite is in the earth's shadow,
|
|